User: anonymous   Login
Location: Unspecified
(0.0000°N, 0.0000°E)
Time: 03:14:56
(UTC+00:00)
Language:

FORTE - Orbit

View from above orbital plane
View from above orbital plane
View from above satellite
View from above satellite

Ground track
Ground track

The orbit data is extracted from the following two-line orbital elements,

1 24920U 97047A   19083.48550619  .00000001  00000-0  24404-4 0  9992
2 24920  69.9539 210.1263 0025578 272.7629  87.0565 14.26326936122128
Epoch (UTC): 24 March 2019 11:39:07
Eccentricity: 0.0025578
inclination: 69.9539°
perigee height: 785 km
apogee height: 822 km
right ascension of ascending node: 210.1263°
argument of perigee: 272.7629°
revolutions per day: 14.26326936
mean anomaly at epoch: 87.0565°
orbit number at epoch: 12212

The dashed part of the orbit path shows where the satellite is in the earth's shadow,  

DLR